Weather History for Opa Locka, FL

Change the Weather History Date:

Wednesday, August 7, 2013

  Actual Average Record
Temperature  
Mean Temperature 85 °F -  
Max Temperature 91 °F 90 °F 96 °F (1956)
Min Temperature 80 °F 76 °F 70 °F (1951)
Cooling Degree Days 20    
Growing Degree Days 35 (Base 50)    
Moisture  
Dew Point 74 °F    
Average Humidity 70    
Maximum Humidity 82    
Minimum Humidity 55    
Precipitation  
Precipitation 0.20 in - - ()
Sea Level Pressure  
Sea Level Pressure 29.95 in    
Wind  
Wind Speed 5 mph (SE)    
Max Wind Speed 16 mph    
Max Gust Speed 21 mph    
Visibility 10 miles    
Events      
Averages and records for this station are not official NWS values.
T = Trace of Precipitation, MM = Missing Value Source: NWS Daily Summary

Daily Weather History Graph

Daily Weather History Graph

Search for Another Location

Airport:

Trip Planner

Search our weather history database for the weather conditions in past years. The results will help you decide how hot, cold, wet, or windy it might be!

Date:

Astronomy

Aug. 07, 2013 Rise Set
Actual Time 6:50 AM EDT 8:03 PM EDT
Civil Twilight 6:25 AM EDT 8:27 PM EDT
Nautical Twilight 5:56 AM EDT 8:56 PM EDT
Astronomical Twilight 5:26 AM EDT 9:26 PM EDT
Moon 7:26 AM EDT (8/7) 8:23 PM EDT (8/7)
Length of Visible Light 14h 01m
Length of Day
13h 12m
New Moon, 1% of the Moon is Illuminated
Aug 7
New Moon
Aug 14
First Quarter
Aug 20
Full
Aug 28
Last Quarter
Sep 5
New

Hourly Weather History & Observations

Time (EDT) Temp. Heat Index Dew Point Humidity Pressure Visibility Wind Dir Wind Speed Gust Speed Precip Events Conditions
12:53 AM 82.0 °F 87.9 °F 73.9 °F 76% 29.96 in 10.0 mi Calm Calm - N/A   Clear
1:53 AM 81.0 °F 86.2 °F 73.9 °F 79% 29.94 in 10.0 mi East 3.5 mph - N/A   Clear
2:53 AM 80.1 °F 84.5 °F 73.9 °F 81% 29.93 in 10.0 mi Calm Calm - N/A   Clear
3:53 AM 81.0 °F 86.7 °F 75.0 °F 82% 29.92 in 10.0 mi Calm Calm - N/A   Clear
4:53 AM 81.0 °F 86.7 °F 75.0 °F 82% 29.92 in 10.0 mi Calm Calm - N/A   Mostly Cloudy
5:02 AM 80.6 °F 85.4 °F 73.4 °F 79% 29.92 in 10.0 mi Calm Calm - N/A   Mostly Cloudy
5:24 AM 80.6 °F 85.4 °F 73.4 °F 79% 29.92 in 10.0 mi Calm Calm - N/A   Scattered Clouds
5:53 AM 80.1 °F 84.5 °F 73.9 °F 81% 29.93 in 10.0 mi Calm Calm - N/A   Clear
6:53 AM 81.0 °F 86.7 °F 75.0 °F 82% 29.94 in 10.0 mi Calm Calm - N/A   Clear
7:53 AM 82.0 °F 87.9 °F 73.9 °F 76% 29.95 in 10.0 mi Calm Calm - N/A   Clear
8:53 AM 86.0 °F 95.1 °F 75.0 °F 70% 29.96 in 10.0 mi SE 8.1 mph - N/A   Partly Cloudy
9:24 AM 87.8 °F 97.6 °F 75.2 °F 66% 29.96 in 10.0 mi South 5.8 mph - N/A   Mostly Cloudy
9:48 AM 87.8 °F 95.6 °F 73.4 °F 62% 29.96 in 10.0 mi SSE 11.5 mph - N/A   Scattered Clouds
9:53 AM 88.0 °F 96.5 °F 73.9 °F 63% 29.97 in 10.0 mi SSE 9.2 mph - N/A   Scattered Clouds
10:53 AM 87.1 °F 95.4 °F 73.9 °F 65% 29.98 in 10.0 mi South 15.0 mph 19.6 mph N/A   Overcast
11:53 AM 89.1 °F 98.0 °F 73.9 °F 61% 29.97 in 10.0 mi SE 5.8 mph - 0.20 in   Scattered Clouds
12:53 PM 89.1 °F 98.0 °F 73.9 °F 61% 29.98 in 10.0 mi ESE 15.0 mph - N/A   Mostly Cloudy
1:53 PM 89.1 °F 98.0 °F 73.9 °F 61% 29.97 in 10.0 mi SE 10.4 mph - N/A   Overcast
2:53 PM 88.0 °F 97.5 °F 75.0 °F 65% 29.97 in 10.0 mi SE 11.5 mph - N/A   Scattered Clouds
3:21 PM 87.8 °F 97.6 °F 75.2 °F 66% 29.95 in 10.0 mi SE 15.0 mph 20.7 mph N/A   Mostly Cloudy
3:29 PM 87.8 °F 97.6 °F 75.2 °F 66% 29.95 in 10.0 mi SE 16.1 mph - N/A   Scattered Clouds
3:53 PM 87.1 °F 96.3 °F 75.0 °F 67% 29.95 in 10.0 mi SSE 6.9 mph - N/A   Partly Cloudy
4:53 PM 90.0 °F 96.9 °F 72.0 °F 55% 29.94 in 10.0 mi SSE 10.4 mph - N/A   Clear
5:53 PM 88.0 °F 95.6 °F 73.0 °F 61% 29.94 in 10.0 mi ESE 9.2 mph - N/A   Scattered Clouds
6:53 PM 87.1 °F 93.6 °F 72.0 °F 61% 29.93 in 10.0 mi ESE 9.2 mph - N/A   Clear
7:53 PM 84.9 °F 92.1 °F 73.9 °F 69% 29.94 in 10.0 mi ESE 9.2 mph - N/A   Clear
8:53 PM 84.9 °F 92.1 °F 73.9 °F 69% 29.95 in 10.0 mi SE 8.1 mph - N/A   Partly Cloudy
9:53 PM 84.0 °F 91.2 °F 73.9 °F 72% 29.97 in 10.0 mi SE 5.8 mph - N/A   Clear
10:53 PM 84.0 °F 91.9 °F 75.0 °F 74% 29.99 in 10.0 mi ESE 6.9 mph - N/A   Clear
11:53 PM 84.0 °F 91.2 °F 73.9 °F 72% 29.99 in 10.0 mi ESE 8.1 mph - N/A   Clear